Retour au catalogue

STARLINK-37431

ActifCommunicationsSSO
NORAD 68812·PAYLOAD·🇺🇸 United States

Lancé Apr 23, 2026 depuis Vandenberg Space Force Base

Loading…

Prochains Passages (prochaines 24 heures)

TLE

FraisSource: CelesTrak SupGP

Époque: Sep 14, 2026, 21:27 UTC

1 68812C 26089L   26257.89423611  .00064805  00000+0  20121-2 0  2573
2 68812  97.2851 103.7115 0001587  94.4859  76.5504 15.33400046    11

Suivez STARLINK-37431 en temps réel avec AllMySat

Download on the App Store